When you browse on this site, cookies collect data to enhance your experience and personalize the content and advertising you see.
Visit our Privacy Policy to learn more. By continuing to use the site, you agree to this use of cookies and data.
  • In United Kingdom
  • List of Countries
  • For 7 days
  • Water Temperature
  • Weather Map
  • Weather Widgets
  • user-avatar
    Login

    Hourly Weather Wiktoria

    Today, 25 January, Saturday

    Time Temperature Precipitation Wind Pressure Humidity
    00:00 +18°C° 0 mm 2 mps 748 mmHg 59%
    01:00 +17°C° 0 mm 2 mps 749 mmHg 62%
    02:00 +16°C° 0 mm 2 mps 748 mmHg 64%
    03:00 +16°C° 0 mm 1 mps 748 mmHg 66%
    04:00 +15°C° 0 mm 1 mps 748 mmHg 68%
    05:00 +16°C° 0 mm 1 mps 749 mmHg 67%
    06:00 +18°C° 0 mm 1 mps 749 mmHg 65%
    07:00 +18°C° 0 mm 1 mps 749 mmHg 63%
    08:00 +20°C° 0 mm 1 mps 749 mmHg 57%
    09:00 +22°C° 0 mm 1 mps 749 mmHg 51%
    10:00 +24°C° 0 mm 1 mps 748 mmHg 45%
    11:00 +26°C° 0 mm 1 mps 748 mmHg 42%
    12:00 +27°C° 0 mm 1 mps 748 mmHg 38%
    13:00 +28°C° 0 mm 1 mps 748 mmHg 34%
    14:00 +29°C° 0 mm 1 mps 747 mmHg 33%
    15:00 +29°C° 0 mm 1 mps 746 mmHg 31%
    16:00 +30°C° 0 mm 1 mps 746 mmHg 30%
    17:00 +29°C° 0 mm 1 mps 746 mmHg 33%
    18:00 +28°C° 0 mm 1 mps 746 mmHg 36%
    19:00 +28°C° 0 mm 1 mps 747 mmHg 38%
    20:00 +26°C° 0 mm 1 mps 747 mmHg 40%
    21:00 +25°C° 0 mm 1 mps 747 mmHg 42%
    22:00 +24°C° 0 mm 1 mps 747 mmHg 43%
    23:00 +23°C° 0 mm 1 mps 747 mmHg 48%

    Tomorrow, 26 January, Sunday

    Time Temperature Precipitation Wind Pressure Humidity
    00:00 +21°C° 0 mm 2 mps 747 mmHg 53%
    01:00 +20°C° 0 mm 2 mps 747 mmHg 57%
    02:00 +20°C° 0 mm 2 mps 747 mmHg 61%
    03:00 +19°C° 0 mm 2 mps 747 mmHg 64%
    04:00 +18°C° 0 mm 2 mps 746 mmHg 67%
    05:00 +20°C° 0 mm 1 mps 747 mmHg 66%
    06:00 +21°C° 0 mm 1 mps 747 mmHg 64%
    07:00 +21°C° 0 mm 1 mps 748 mmHg 63%
    08:00 +24°C° 0 mm 1 mps 748 mmHg 57%
    09:00 +26°C° 0 mm 1 mps 748 mmHg 50%
    10:00 +28°C° 0 mm 1 mps 748 mmHg 43%
    11:00 +30°C° 0 mm 2 mps 748 mmHg 39%
    12:00 +31°C° 0 mm 3 mps 747 mmHg 35%
    13:00 +33°C° 0 mm 4 mps 747 mmHg 31%
    14:00 +34°C° 0 mm 4 mps 746 mmHg 30%
    15:00 +34°C° 0 mm 4 mps 746 mmHg 28%
    16:00 +35°C° 0 mm 4 mps 746 mmHg 27%
    17:00 +33°C° 0 mm 4 mps 746 mmHg 32%
    18:00 +32°C° 0 mm 4 mps 746 mmHg 37%
    19:00 +30°C° 0 mm 3 mps 746 mmHg 41%
    20:00 +28°C° 0 mm 4 mps 747 mmHg 48%
    21:00 +26°C° 0 mm 4 mps 747 mmHg 55%
    22:00 +23°C° 0 mm 4 mps 748 mmHg 61%
    23:00 +22°C° 0 mm 4 mps 748 mmHg 66%

    Day after tomorrow, 27 January, Monday

    Time Temperature Precipitation Wind Pressure Humidity
    00:00 +21°C° 0 mm 4 mps 748 mmHg 70%
    01:00 +20°C° 0 mm 4 mps 747 mmHg 75%
    02:00 +19°C° 0 mm 3 mps 747 mmHg 77%
    03:00 +18°C° 0 mm 3 mps 747 mmHg 80%
    04:00 +18°C° 0 mm 2 mps 747 mmHg 82%
    05:00 +19°C° 0 mm 2 mps 747 mmHg 79%
    06:00 +19°C° 0 mm 2 mps 747 mmHg 77%
    07:00 +21°C° 0 mm 1 mps 748 mmHg 74%
    08:00 +23°C° 0 mm 2 mps 748 mmHg 63%
    09:00 +26°C° 0 mm 2 mps 748 mmHg 52%
    10:00 +29°C° 0 mm 2 mps 748 mmHg 41%
    11:00 +30°C° 0 mm 3 mps 747 mmHg 35%
    12:00 +33°C° 0 mm 3 mps 747 mmHg 28%
    13:00 +34°C° 0 mm 4 mps 746 mmHg 22%
    14:00 +34°C° 0 mm 4 mps 746 mmHg 21%
    15:00 +34°C° 0 mm 4 mps 746 mmHg 21%
    16:00 +35°C° 0 mm 4 mps 745 mmHg 20%
    17:00 +33°C° 0 mm 4 mps 746 mmHg 27%
    18:00 +29°C° 0 mm 4 mps 746 mmHg 34%
    19:00 +27°C° 0 mm 4 mps 746 mmHg 41%
    20:00 +25°C° 0 mm 5 mps 747 mmHg 47%
    21:00 +23°C° 0 mm 5 mps 747 mmHg 52%
    22:00 +21°C° 0 mm 6 mps 748 mmHg 57%
    23:00 +20°C° 0 mm 5 mps 747 mmHg 59%

    28 January, Tuesday

    Time Temperature Precipitation Wind Pressure Humidity
    00:00 +19°C° 0 mm 5 mps 747 mmHg 61%
    01:00 +19°C° 0 mm 4 mps 747 mmHg 63%
    02:00 +18°C° 0 mm 4 mps 747 mmHg 65%
    03:00 +17°C° 0 mm 4 mps 747 mmHg 67%
    04:00 +15°C° 0 mm 4 mps 747 mmHg 70%
    05:00 +17°C° 0 mm 4 mps 747 mmHg 68%
    06:00 +17°C° 0 mm 4 mps 748 mmHg 65%
    07:00 +17°C° 0 mm 4 mps 748 mmHg 63%
    08:00 +20°C° 0 mm 4 mps 748 mmHg 54%
    09:00 +24°C° 0 mm 3 mps 748 mmHg 44%
    10:00 +26°C° 0 mm 3 mps 749 mmHg 34%
    11:00 +28°C° 0 mm 4 mps 748 mmHg 31%
    12:00 +29°C° 0 mm 4 mps 748 mmHg 29%
    13:00 +30°C° 0 mm 5 mps 748 mmHg 26%
    14:00 +32°C° 0 mm 5 mps 747 mmHg 27%
    15:00 +32°C° 0 mm 6 mps 747 mmHg 27%
    16:00 +32°C° 0 mm 6 mps 746 mmHg 28%
    17:00 +29°C° 0 mm 6 mps 747 mmHg 33%
    18:00 +27°C° 0 mm 6 mps 747 mmHg 38%
    19:00 +26°C° 0 mm 6 mps 747 mmHg 43%
    20:00 +23°C° 0 mm 6 mps 748 mmHg 45%
    21:00 +22°C° 0 mm 5 mps 749 mmHg 48%
    22:00 +21°C° 0 mm 5 mps 749 mmHg 50%
    23:00 +20°C° 0 mm 5 mps 749 mmHg 54%

    29 January, Wednesday

    Time Temperature Precipitation Wind Pressure Humidity
    00:00 +19°C° 0 mm 4 mps 749 mmHg 57%
    01:00 +19°C° 0 mm 4 mps 749 mmHg 60%
    02:00 +18°C° 0 mm 4 mps 749 mmHg 62%
    03:00 +18°C° 0 mm 3 mps 749 mmHg 65%
    04:00 +17°C° 0 mm 3 mps 749 mmHg 67%
    05:00 +18°C° 0 mm 3 mps 749 mmHg 65%
    06:00 +18°C° 0 mm 3 mps 749 mmHg 63%
    07:00 +19°C° 0 mm 3 mps 749 mmHg 61%
    08:00 +21°C° 0 mm 2 mps 750 mmHg 52%
    09:00 +25°C° 0 mm 2 mps 750 mmHg 43%
    10:00 +28°C° 0 mm 2 mps 750 mmHg 34%
    11:00 +30°C° 0 mm 2 mps 749 mmHg 30%
    12:00 +31°C° 0 mm 3 mps 749 mmHg 26%
    13:00 +34°C° 0 mm 4 mps 748 mmHg 23%
    14:00 +34°C° 0 mm 4 mps 748 mmHg 23%
    15:00 +35°C° 0 mm 4 mps 748 mmHg 22%
    16:00 +35°C° 0 mm 5 mps 747 mmHg 22%
    17:00 +34°C° 0 mm 5 mps 747 mmHg 26%
    18:00 +32°C° 0 mm 5 mps 747 mmHg 30%
    19:00 +29°C° 0 mm 5 mps 747 mmHg 33%
    20:00 +28°C° 0 mm 4 mps 748 mmHg 39%
    21:00 +26°C° 0 mm 4 mps 748 mmHg 44%
    22:00 +23°C° 0 mm 4 mps 749 mmHg 49%
    23:00 +22°C° 0 mm 3 mps 748 mmHg 52%

    30 January, Thursday

    Time Temperature Precipitation Wind Pressure Humidity
    00:00 +21°C° 0 mm 3 mps 748 mmHg 55%
    01:00 +21°C° 0 mm 2 mps 748 mmHg 58%
    02:00 +20°C° 0 mm 2 mps 748 mmHg 59%
    03:00 +20°C° 0 mm 2 mps 748 mmHg 60%
    04:00 +20°C° 0 mm 1 mps 748 mmHg 62%
    05:00 +20°C° 0 mm 2 mps 748 mmHg 60%
    06:00 +21°C° 0 mm 2 mps 749 mmHg 58%
    07:00 +23°C° 0 mm 2 mps 749 mmHg 55%
    08:00 +26°C° 0 mm 2 mps 749 mmHg 49%
    09:00 +29°C° 0 mm 3 mps 749 mmHg 43%
    10:00 +31°C° 0 mm 3 mps 749 mmHg 37%
    11:00 +34°C° 0 mm 3 mps 749 mmHg 32%
    12:00 +36°C° 0 mm 3 mps 748 mmHg 27%
    13:00 +38°C° 0 mm 2 mps 748 mmHg 22%
    14:00 +39°C° 0 mm 2 mps 747 mmHg 20%
    15:00 +39°C° 0 mm 2 mps 746 mmHg 19%
    16:00 +40°C° 0 mm 2 mps 746 mmHg 17%
    17:00 +39°C° 0 mm 2 mps 746 mmHg 20%
    18:00 +36°C° 0 mm 1 mps 746 mmHg 22%
    19:00 +35°C° 0 mm 1 mps 746 mmHg 25%
    20:00 +34°C° 0 mm 1 mps 746 mmHg 26%
    21:00 +32°C° 0 mm 2 mps 747 mmHg 28%
    22:00 +31°C° 0 mm 2 mps 747 mmHg 29%
    23:00 +30°C° 0 mm 2 mps 747 mmHg 32%
    Show more